CZ-4B DEB (43661 NORAD) Tracking and Keplerian Element Data

This shows tracking and keplerian element data for the satellite.

Feedback or suggestion? Click here.




ElementValue
Catalog43661
NameCZ-4B DEB
Epoch Orbit402
Epoch Day326.96970565
Epoch Year2018
RAAN332.4209
Inclination99.352
Eccentricity0.0012832
Argument of Perigee210.7524
Mean Anonmoly149.2886
Mean Motion13.88623004
Decay Rate5.4E-07
L11 43661U 18081E 18326.96970565 .00000054 00000-0 82088-4 0 9994
L22 43661 99.3520 332.4209 0012832 210.7524 149.2886 13.88623004 4029



Live tracking and technical data element details for CZ-4B DEB (NORAD 43661). CZ-4B DEB can be tracked NOW for your location showing map with azimuth and elevation plus other details from your city location.







IsCatalogInMostPopularTable: catalog: 43661, numindb: 561
Update: records affected: 1



GetName: 43661 CZ-4B DEB

Hit Count: updated at: Sun, 19 Apr 2026 07:42:49 GMT